カタログに戻る

ONEWEB-0452

運用中通信PO
NORAD 51644·PAYLOAD·🇬🇧 United Kingdom

打ち上げ Feb 10, 2022 から Guiana Space Centre

Loading…

次のパス (今後24時間)

TLE

最新Source: CelesTrak SupGP

元期: Sep 14, 2026, 16:23 UTC

1 51644C 22012Y   26257.68317546  .00002227  00000+0  57423-2 0  2571
2 51644  87.9194 348.1056 0002252 106.9830   3.1838 13.17644368    12

AllMySatでONEWEB-0452をリアルタイム追跡

Download on the App Store